Lawton, OK

9:12 AM CST on February 26, 2017 (GMT -0600)
Lawton-Fort Sill Regional

Weather History for KLAW - November, 2013

Change the Weather History Date:

Sunday, November 17, 2013

  Actual Average Record
Temperature  
Mean Temperature 67 °F -  
Max Temperature 77 °F 61 °F 82 °F (1954)
Min Temperature 54 °F 38 °F 13 °F (1959)
Cooling Degree Days 2    
Growing Degree Days 17 (Base 50)    
Moisture  
Dew Point 41 °F    
Average Humidity 46    
Maximum Humidity 90    
Minimum Humidity 20    
Precipitation  
Precipitation 0.00 in - - ()
Sea Level Pressure  
Sea Level Pressure 29.80 in    
Wind  
Wind Speed 12 mph (North)    
Max Wind Speed 17 mph    
Max Gust Speed 24 mph    
Visibility 10 miles    
Events      
Averages and records for this station are not official NWS values.
T = Trace of Precipitation, MM = Missing Value Source: NWS Daily Summary

Daily Weather History Graph

Daily Weather History Graph

Search for Another Location

Airport or City:

Trip Planner

Search our weather history database for the weather conditions in past years. The results will help you decide how hot, cold, wet, or windy it might be!

Date:

Astronomy

Nov. 17, 2013 Rise Set
Actual Time 7:09 AM CST 5:27 PM CST
Civil Twilight 6:42 AM CST 5:54 PM CST
Nautical Twilight 6:12 AM CST 6:25 PM CST
Astronomical Twilight 5:42 AM CST 6:54 PM CST
Moon 5:45 PM CST (11/17) 7:05 AM CST (11/17)
Length of Visible Light 11h 11m
Length of Day
10h 18m
Full, 100% of the Moon is Illuminated
Nov 17
Full
Nov 25
Last Quarter
Dec 2
New
Dec 9
First Quarter
Dec 17
Full

Hourly Weather History & Observations

Time (CST) Temp. Dew Point Humidity Pressure Visibility Wind Dir Wind Speed Gust Speed Precip Events Conditions
12:53 AM 68.0 °F 57.9 °F 70% 29.58 in 10.0 mi South 17.3 mph - N/A   Clear
1:53 AM 66.9 °F 57.9 °F 73% 29.57 in 10.0 mi SSW 16.1 mph - N/A   Clear
2:53 AM 66.0 °F 57.0 °F 73% 29.57 in 10.0 mi SSW 16.1 mph 24.2 mph N/A   Clear
3:53 AM 66.0 °F 57.0 °F 73% 29.58 in 10.0 mi SSW 16.1 mph 24.2 mph N/A   Clear
4:53 AM 64.0 °F 57.0 °F 78% 29.61 in 10.0 mi SW 9.2 mph - N/A   Clear
5:53 AM 62.1 °F 55.9 °F 80% 29.63 in 10.0 mi SW 5.8 mph - N/A   Clear
6:53 AM 57.9 °F 55.0 °F 90% 29.68 in 10.0 mi NW 3.5 mph - N/A   Clear
7:53 AM 57.0 °F 54.0 °F 89% 29.72 in 10.0 mi Calm Calm - N/A   Clear
8:53 AM 62.1 °F 55.0 °F 78% 29.75 in 10.0 mi West 4.6 mph - N/A   Clear
9:53 AM 72.0 °F 41.0 °F 33% 29.76 in 10.0 mi WNW 9.2 mph 17.3 mph N/A   Clear
10:53 AM 75.0 °F 34.0 °F 22% 29.79 in 10.0 mi NNW 8.1 mph - N/A   Clear
11:53 AM 77.0 °F 34.0 °F 21% 29.80 in 10.0 mi NNW 8.1 mph - N/A   Clear
12:53 PM 77.0 °F 33.1 °F 20% 29.81 in 10.0 mi North 10.4 mph - N/A   Clear
1:53 PM 77.0 °F 35.1 °F 22% 29.81 in 10.0 mi NE 9.2 mph - N/A   Clear
2:53 PM 77.0 °F 33.1 °F 20% 29.82 in 10.0 mi NE 4.6 mph - N/A   Clear
3:53 PM 75.9 °F 33.1 °F 21% 29.85 in 10.0 mi North 6.9 mph - N/A   Clear
4:53 PM 72.0 °F 34.0 °F 25% 29.88 in 10.0 mi NE 8.1 mph - N/A   Clear
5:53 PM 64.9 °F 33.1 °F 31% 29.92 in 10.0 mi NE 11.5 mph - N/A   Clear
6:53 PM 63.0 °F 32.0 °F 31% 29.96 in 10.0 mi NNE 12.7 mph - N/A   Clear
7:53 PM 62.1 °F 30.9 °F 31% 29.99 in 10.0 mi NNE 12.7 mph - N/A   Clear
8:53 PM 59.0 °F 30.9 °F 35% 30.01 in 10.0 mi NNE 15.0 mph - N/A   Clear
9:53 PM 59.0 °F 28.9 °F 32% 30.04 in 10.0 mi NNE 13.8 mph - N/A   Clear
10:53 PM 57.0 °F 25.0 °F 29% 30.06 in 10.0 mi NNE 15.0 mph - N/A   Clear
11:53 PM 54.0 °F 23.0 °F 30% 30.08 in 10.0 mi NNE 10.4 mph - N/A   Clear